TimeMDT,TemperatureF,Dew PointF,Humidity,Sea Level PressureIn,VisibilityMPH,Wind Direction,Wind SpeedMPH,Gust SpeedMPH,PrecipitationIn,Events,Conditions,WindDirDegrees,DateUTC
12:55 AM,34.0,23.0,64,30.14,10.0,Calm,Calm,-,N/A,,Clear,0,2013-10-27 06:55:00
1:55 AM,35.1,23.0,61,30.10,10.0,Calm,Calm,-,N/A,,Clear,0,2013-10-27 07:55:00
2:55 AM,30.0,21.0,69,30.10,10.0,Calm,Calm,-,N/A,,Clear,0,2013-10-27 08:55:00
3:55 AM,30.9,21.0,67,30.07,10.0,Calm,Calm,-,N/A,,Clear,0,2013-10-27 09:55:00
4:55 AM,30.9,21.9,69,30.04,10.0,Calm,Calm,-,N/A,,Clear,0,2013-10-27 10:55:00
5:55 AM,28.9,19.9,69,30.05,10.0,Calm,Calm,-,N/A,,Clear,0,2013-10-27 11:55:00
6:55 AM,27.0,21.0,78,30.04,10.0,Calm,Calm,-,N/A,,Clear,0,2013-10-27 12:55:00
7:55 AM,26.1,19.0,75,30.01,10.0,Calm,Calm,-,N/A,,Clear,0,2013-10-27 13:55:00
8:55 AM,30.0,21.0,69,29.99,10.0,Calm,Calm,-,N/A,,Clear,0,2013-10-27 14:55:00
9:55 AM,36.0,21.9,57,29.96,10.0,Calm,Calm,-,N/A,,Clear,0,2013-10-27 15:55:00
10:55 AM,39.0,24.1,55,29.91,10.0,Calm,Calm,-,N/A,,Clear,0,2013-10-27 16:55:00
11:55 AM,44.1,24.1,45,29.87,10.0,Calm,Calm,-,N/A,,Clear,0,2013-10-27 17:55:00
12:55 PM,48.0,24.1,39,29.80,10.0,Calm,Calm,-,N/A,,Clear,0,2013-10-27 18:55:00
1:55 PM,51.1,25.0,36,29.73,10.0,NNE,3.5,-,N/A,,Clear,20,2013-10-27 19:55:00
2:55 PM,55.9,21.9,27,29.67,10.0,North,5.8,-,N/A,,Clear,350,2013-10-27 20:55:00
3:55 PM,57.0,24.1,28,29.62,10.0,NW,4.6,-,N/A,,Clear,310,2013-10-27 21:55:00
4:55 PM,55.9,23.0,28,29.61,10.0,WNW,4.6,-,N/A,,Overcast,300,2013-10-27 22:55:00
5:55 PM,55.9,21.0,26,29.61,10.0,North,3.5,-,N/A,,Mostly Cloudy,350,2013-10-27 23:55:00
6:55 PM,52.0,21.9,31,29.62,10.0,WNW,6.9,-,N/A,,Clear,290,2013-10-28 00:55:00
7:55 PM,46.9,24.1,41,29.66,10.0,Calm,Calm,-,N/A,,Partly Cloudy,0,2013-10-28 01:55:00
8:55 PM,46.9,25.0,42,29.67,10.0,Calm,Calm,-,N/A,,Overcast,0,2013-10-28 02:55:00
9:55 PM,51.1,23.0,33,29.64,10.0,ESE,3.5,-,N/A,,Overcast,110,2013-10-28 03:55:00
10:55 PM,48.0,26.1,42,29.66,10.0,NNE,3.5,-,N/A,,Overcast,30,2013-10-28 04:55:00
11:55 PM,48.9,27.0,43,29.63,10.0,Calm,Calm,-,N/A,,Overcast,0,2013-10-28 05:55:00